Location: Passo di Treia
(43.2833°N, 13.3333°E)
Time: 04:49:23
(UTC+00:00)

CSL-04 Rocket - Pass Details

Date: 09 December 2019
Orbit: 807 x 859 km, 99.0° (Epoch: 28 January)

Event Time Altitude Azimuth Distance (km) Brightness Sun altitude
Rises 16:39:50 0° 134° (SE) 3,313 6.5 -12.1°
Reaches altitude 10° 16:42:24 10° 124° (SE) 2,385 5.7 -12.6°
Maximum altitude 16:46:54 30° 65° (ENE) 1,426 4.3 -13.3°
Drops below altitude 10° 16:51:26 10° 6° (N) 2,406 5.8 -14.1°
Sets 16:54:02 0° 356° (N) 3,347 6.7 -14.6°
